Погода в Просерпайне

Австралия     20°24′21″S   148°35′36″E
темп.,
°C
ветер,
м/с
пор.,
м/с
влажн.,
%
обл.,
%
осадки,
мм/ч
давл.,
гПа
погр.,
м
16 апреля, пт
пт1601:00+18ю228610 0.0 101539
04:00+18ю11930 0.0 101418
07:00+19ю12911 0.0 101560
10:00+26вюв45635 0.0 10161206
13:00+28в455512 0.0 10131472
16:00+26вюв466517 0.0 10131018
19:00+21юв26820 0.0 1015149
22:00+20ю24860 0.0 101699
17 апреля, сб
сб1701:00+19ю23890 0.0 101550
04:00+18ю22930 0.0 101430
07:00+19ю228822 0.0 101571
10:00+26вюв45600 0.0 10161085
13:00+25в3666100 0.0 1013651
16:00+24вюв3771100 0.0 1012562
19:00+23юв387560 0.0 1014424
22:00+22ююв278045 0.0 1015247
18 апреля, вс
вс1801:00+22ююв387994 0.0 1013359
04:00+22ююв3978100 0.0 1012490
07:00+22юв498074 0.0 1014687
10:00+25юв58626 0.0 10151020
13:00+26вюв676054 0.0 10131273
16:00+24вюв586997 0.0 1012815
19:00+22юв378167 0.0 1014447
22:00+20ююв26840 0.0 1015165
19 апреля, пн
пн1901:00+19ю23910 0.0 101465
04:00+18ююв23940 0.0 101365
07:00+20ююв29892 0.0 1015381
10:00+25вюв586627 0.0 10151164
13:00+27вюв676370 0.1 10131371
16:00+25вюв57707 0.3 10121072
19:00+22юв398361 0.0 1014473
22:00+22юв397965 0.1 1015507
20 апреля, вт
вт2001:00+21ююв398878 0.1 1014304
04:00+22юв388293 0.1 1013399
07:00+21юв398413 0.1 1015404
10:00+26вюв576448 0.1 10161139
13:00+27вюв566084 0.0 10131229
16:00+26вюв4668100 0.0 1013976
19:00+23юв3876100 0.0 1014544
22:00+23ююв2780100 0.1 1015433